[[{"header":{"parameterUnit":"m.s-1","parameterCategory":1,"la1":30.2991,"la2":30.254,"lo1":-89.0895,"lo2":-89.0444,"dy":0.0017,"dx":0.0017,"nx":28,"ny":28,"refTime":"2024-06-27T03:00:00:Z","depth":0,"parameterNumber":2,"parameterNumberName":"U-component_of_WINDS"},"data":[0,0,0,0,0,0,0,0,0,0,0,0,0,0,0,0,0,0,0,0,0,0,0,0,0,0,0,0,0,0,0,0,0,0,0,0,0,0,0,0,0,0,0,0,0,0,0,0,0,0,0,0,0,0,0,0,0,0,2.038,2.0382,0,2.0557,2.0559,2.0561,2.0621,2.062,2.0619,2.0619,2.0799,2.0804,2.081,0,0,0,0,0,0,0,0,0,0,0,0,0,2.0093,2.0098,2.038,2.0382,2.0384,2.0556,2.0559,2.0561,2.0621,2.062,2.0619,2.0618,2.0797,2.0804,2.081,0,0,0,0,0,0,0,0,0,0,0,0,0,2.0238,2.01,2.0379,2.0435,2.0441,2.0556,2.0559,2.0562,2.0621,2.062,2.0619,2.0618,2.0795,2.0803,2.0811,2.0884,0,0,2.0836,2.084,0,0,0,0,0,0,0,0,2.023,2.0249,2.0424,2.0431,2.0439,2.0566,2.0524,2.067,2.0621,2.0553,2.0619,2.0617,2.0722,2.0736,2.0772,2.0892,2.09,2.0837,2.0842,2.0846,2.0848,0,0,0,0,0,0,0,2.022,2.0242,2.045,2.0427,2.0436,2.0451,2.047,2.0552,2.0641,2.0559,2.0563,2.0584,2.0726,2.0764,2.0777,2.0902,2.0837,2.0844,2.0849,2.0852,2.1091,2.1092,0,0,0,0,0,0,2.0201,2.0233,2.0444,2.0455,2.033,2.0457,2.0478,2.0526,2.0641,2.0657,2.0584,2.0586,2.075,2.0767,2.0783,2.0876,2.0846,2.0853,2.0858,2.1089,2.1091,2.1092,0,0,0,0,0,0,2.0194,2.0219,2.0437,2.0345,2.0374,2.0463,2.0516,2.053,2.0568,2.066,2.0676,2.0607,2.075,2.0772,2.0858,2.0883,2.0857,2.0864,2.1088,2.109,2.1092,2.106,0,0,0,0,0,0,2.0186,2.0216,2.0245,2.0346,2.0379,2.0509,2.0517,2.0534,2.0582,2.0586,2.0685,2.0701,2.0751,2.0846,2.0866,2.0893,2.0871,2.1086,2.1089,2.1091,2.1059,2.1061,2.1062,0,0,0,0,0,2.0175,2.0229,2.0246,2.0271,2.0416,2.051,2.0529,2.0586,2.0584,2.0613,2.0672,2.0698,2.0876,2.0854,2.0878,2.0908,2.1085,2.1088,2.1091,2.1059,2.1061,2.1062,0,0,0,0,0,0,2.0128,2.0243,2.0263,2.0351,2.042,2.052,2.0559,2.0586,2.0658,2.0658,2.0726,2.0748,2.0829,2.0877,2.085,2.0984,2.0982,2.099,2.0949,2.0952,2.0953,2.094,2.0878,0,0,0,0,0,2.0128,2.0195,2.0292,2.0359,2.0393,2.047,2.0513,2.0551,2.0626,2.0655,2.0721,2.0792,2.0865,2.0911,2.0983,2.1067,2.1089,2.1099,2.11,2.1101,2.1107,2.1155,2.1161,2.1103,2.1103,2.1103,0,0,2.0128,2.0199,2.0237,2.0352,2.041,2.0478,2.0494,2.0565,2.0616,2.0666,2.0752,2.0802,2.0886,2.0972,2.1013,2.1015,2.1128,2.1105,2.1105,2.1111,2.1159,2.1164,2.1169,2.1105,2.1105,2.1104,0,0,2.0163,2.0224,2.0287,2.0345,2.0434,2.0484,2.0499,2.0595,2.0631,2.0718,2.0757,2.0818,2.0941,2.1,2.1046,2.1103,2.1129,2.1124,2.1131,2.1177,2.1182,2.1186,2.1206,2.1213,2.113,2.113,2.113,0,2.0152,2.0256,2.0316,2.0385,2.0434,2.0483,2.0547,2.0601,2.0708,2.074,2.0741,2.0896,2.0956,2.1056,2.107,2.1106,2.1125,2.1113,2.1176,2.1181,2.1186,2.1206,2.1214,2.1129,2.1129,2.1129,2.1129,0,2.0239,2.031,2.035,2.0453,2.0506,2.0573,2.0642,2.0689,2.0722,2.0773,2.0861,2.0935,2.1022,2.1049,2.1081,2.1153,2.1152,2.1163,2.1163,2.119,2.121,2.1218,2.1127,2.1127,2.1128,2.1128,0,0,2.0249,2.0384,2.0397,2.0445,2.0545,2.0602,2.067,2.0756,2.0795,2.0867,2.0926,2.1029,2.104,2.1092,2.1132,2.1172,2.1213,2.1179,2.1182,2.1183,2.1296,2.1287,2.1295,2.1231,2.1232,2.1234,2.1289,0,2.0297,2.0422,2.0478,2.0577,2.0644,2.0691,2.075,2.0818,2.0867,2.0931,2.0985,2.1057,2.1067,2.1098,2.114,2.1199,2.1236,2.1196,2.1286,2.1289,2.1264,2.1306,2.1296,2.1345,2.1298,2.1299,2.13,0,2.037,2.0443,2.0549,2.0642,2.0672,2.0725,2.0808,2.0868,2.0946,2.0979,2.1036,2.1074,2.1148,2.1142,2.1244,2.1215,2.1256,2.129,2.1293,2.1304,2.1296,2.1317,2.1362,2.1369,2.1313,2.1312,2.1311,0,2.0367,2.0491,2.0571,2.061,2.072,2.0756,2.0804,2.0881,2.0929,2.1001,2.1033,2.1113,2.1157,2.1217,2.1276,2.1266,2.1372,2.1372,2.1402,2.14,2.1422,2.142,2.1474,2.1447,2.1447,2.1447,2.1447,0,2.0416,2.0479,2.0571,2.062,2.0692,2.0756,2.0825,2.0876,2.0944,2.1004,2.1049,2.1104,2.1178,2.1242,2.1288,2.1365,2.1385,2.1413,2.1425,2.1409,2.1406,2.1437,2.1435,2.1449,2.1449,2.1448,2.1448,0,2.0425,2.0489,2.0579,2.0676,2.0702,2.0751,2.0834,2.0883,2.0934,2.1009,2.103,2.111,2.1188,2.1252,2.1354,2.1385,2.1466,2.1479,2.1439,2.1446,2.1472,2.1468,2.1548,2.1561,2.1525,2.1526,2.1526,0,2.0451,2.0501,2.0604,2.0647,2.0694,2.0763,2.0812,2.0876,2.0925,2.1018,2.1056,2.1137,2.1205,2.1327,2.1394,2.1472,2.1488,2.1511,2.15,2.1483,2.1489,2.1485,2.149,2.1511,2.1511,2.1511,2.1511,0,2.0492,2.0521,2.0591,2.0671,2.0729,2.0795,2.0863,2.0895,2.0972,2.1025,2.1105,2.1158,2.1262,2.1342,2.1427,2.1476,2.1506,2.1514,2.1525,2.151,2.1485,2.1499,2.1442,2.1512,2.1512,2.1512,2.1512,2.1512,2.0511,2.0557,2.0637,2.0712,2.077,2.0832,2.0883,2.094,2.1008,2.1098,2.1132,2.1214,2.129,2.1408,2.1457,2.1522,2.1526,2.1542,2.1546,2.1549,2.1547,2.1474,2.1538,2.1538,2.1538,2.1538,2.1538,0,2.0554,2.0607,2.0676,2.0769,2.0829,2.0852,2.0928,2.0976,2.1048,2.1117,2.1183,2.1275,2.1353,2.1426,2.1507,2.1545,2.1561,2.1564,2.1562,2.1573,2.1539,2.1521,2.155,2.155,2.155,2.155,2.155,2.155,2.0583,2.0663,2.0701,2.081,2.0863,2.0944,2.0985,2.1043,2.1098,2.1199,2.1264,2.1311,2.1382,2.1468,2.154,2.156,2.1587,2.1587,2.161,2.1577,2.1575,2.1573,2.1557,2.1592,2.1592,2.1638,2.1639,2.1639]},{"header":{"parameterUnit":"m.s-1","parameterCategory":1,"la1":30.2991,"la2":30.254,"lo1":-89.0895,"lo2":-89.0444,"dy":0.0017,"dx":0.0017,"nx":28,"ny":28,"refTime":"2024-06-27T03:00:00:Z","depth":0,"parameterNumber":3,"parameterNumberName":"V-component_of_WINDS"},"data":[0,0,0,0,0,0,0,0,0,0,0,0,0,0,0,0,0,0,0,0,0,0,0,0,0,0,0,0,0,0,0,0,0,0,0,0,0,0,0,0,0,0,0,0,0,0,0,0,0,0,0,0,0,0,0,0,0,0,7.0084,7.0085,0,7.0162,7.0163,7.0164,7.0146,7.0145,7.0143,7.0142,7.0214,7.0217,7.022,0,0,0,0,0,0,0,0,0,0,0,0,0,6.991,6.9913,7.0084,7.0085,7.0086,7.0162,7.0163,7.0164,7.0146,7.0145,7.0143,7.0141,7.0212,7.0216,7.022,0,0,0,0,0,0,0,0,0,0,0,0,0,6.9986,6.9915,7.0084,7.0086,7.0087,7.0162,7.0163,7.0164,7.0147,7.0145,7.0142,7.014,7.0211,7.0216,7.0221,7.0295,0,0,7.0236,7.0238,0,0,0,0,0,0,0,0,6.9982,6.9993,7.0085,7.0086,7.0088,7.0142,7.0128,7.0208,7.0147,7.0124,7.0142,7.0139,7.0191,7.0197,7.0217,7.0298,7.0301,7.0236,7.0239,7.0241,7.0243,0,0,0,0,0,0,0,6.9977,6.9989,7.0114,7.0086,7.0088,7.0081,7.0089,7.0143,7.0168,7.0126,7.0125,7.0135,7.0191,7.0212,7.0218,7.0302,7.0236,7.024,7.0243,7.0245,7.0446,7.0449,0,0,0,0,0,0,6.9972,6.9985,7.0112,7.0117,7.0029,7.0086,7.0095,7.0127,7.0168,7.0172,7.0137,7.0134,7.0205,7.0212,7.0221,7.0309,7.0241,7.0246,7.0249,7.0444,7.0447,7.045,0,0,0,0,0,0,6.9968,6.9983,7.0109,7.0051,7.0066,7.0091,7.0127,7.0129,7.015,7.0176,7.018,7.0154,7.0203,7.0214,7.0277,7.0312,7.0248,7.0252,7.0441,7.0445,7.0448,7.0488,0,0,0,0,0,0,6.9963,6.9982,7.0013,7.0052,7.007,7.0166,7.0129,7.0133,7.016,7.0157,7.0193,7.0197,7.0202,7.027,7.0282,7.0317,7.0256,7.0438,7.0443,7.0447,7.0483,7.0492,7.05,0,0,0,0,0,6.9957,7.0019,7.0014,7.003,7.0109,7.0169,7.0178,7.0186,7.0163,7.0192,7.0208,7.0196,7.0306,7.0276,7.0289,7.0327,7.0436,7.0442,7.0447,7.048,7.049,7.05,0,0,0,0,0,0,6.998,7.0024,7.0019,7.0096,7.0129,7.0166,7.0203,7.0197,7.0235,7.023,7.0235,7.0243,7.0307,7.0323,7.0289,7.04,7.0367,7.0376,7.0388,7.0398,7.0406,7.0401,7.026,0,0,0,0,0,6.9995,7.0043,7.0077,7.0141,7.0158,7.0178,7.0204,7.0207,7.024,7.0253,7.0274,7.0304,7.0346,7.0373,7.0412,7.0485,7.0492,7.0518,7.0526,7.0533,7.0539,7.0578,7.059,7.0467,7.0467,7.0467,0,0,7.0024,7.0054,7.0083,7.0147,7.0173,7.0219,7.019,7.024,7.0274,7.026,7.0322,7.0338,7.0371,7.044,7.0471,7.0455,7.0575,7.0539,7.0545,7.0548,7.0585,7.0597,7.0607,7.0471,7.047,7.047,0,0,7.0102,7.013,7.0187,7.0214,7.0254,7.0267,7.028,7.0318,7.0329,7.0392,7.0382,7.042,7.0492,7.0516,7.0538,7.0625,7.0614,7.0637,7.068,7.0718,7.0727,7.0736,7.0766,7.0777,7.0644,7.0644,7.0644,0,7.0133,7.0206,7.0216,7.0268,7.0296,7.0288,7.0343,7.0368,7.0418,7.0435,7.0418,7.0507,7.0529,7.0603,7.0624,7.0642,7.0656,7.0633,7.0726,7.0734,7.0742,7.0771,7.0783,7.0647,7.0646,7.0646,7.0646,0,7.0241,7.0292,7.0332,7.0385,7.0416,7.047,7.0485,7.0515,7.0515,7.0528,7.0591,7.0617,7.0662,7.0679,7.0679,7.0753,7.0742,7.0725,7.0692,7.0756,7.0783,7.0795,7.065,7.0649,7.0649,7.0648,0,0,7.0336,7.0394,7.0408,7.0431,7.0475,7.0513,7.0565,7.0611,7.0637,7.0671,7.0713,7.0774,7.0759,7.0783,7.0785,7.0818,7.0885,7.0797,7.0798,7.0812,7.0966,7.0979,7.0991,7.0878,7.088,7.0882,7.0963,0,7.0418,7.0514,7.0524,7.0608,7.0654,7.0646,7.0691,7.0721,7.0735,7.0773,7.0787,7.083,7.0807,7.0822,7.0855,7.087,7.0915,7.0864,7.0915,7.0917,7.0907,7.1006,7.1019,7.1095,7.0974,7.0976,7.0977,0,7.0526,7.0567,7.0657,7.0694,7.0714,7.0755,7.0797,7.0835,7.0868,7.0875,7.0903,7.0901,7.0951,7.0917,7.0986,7.095,7.0971,7.0982,7.0985,7.0989,7.0951,7.1012,7.1119,7.1131,7.0994,7.0993,7.0991,0,7.0586,7.0663,7.0726,7.0746,7.0792,7.082,7.084,7.0871,7.0898,7.0934,7.0951,7.0992,7.1014,7.1044,7.1051,7.1026,7.112,7.1086,7.1125,7.1125,7.1145,7.1144,7.1257,7.116,7.1159,7.1159,7.1159,0,7.0676,7.0731,7.0754,7.0793,7.0854,7.0863,7.0921,7.0939,7.0967,7.1007,7.1001,7.1038,7.1046,7.1084,7.109,7.1145,7.1155,7.1161,7.1161,7.1161,7.1161,7.1175,7.117,7.1162,7.1162,7.1161,7.116,0,7.0753,7.0771,7.084,7.0878,7.0888,7.0931,7.0962,7.0998,7.1011,7.1062,7.1074,7.1093,7.1137,7.1148,7.12,7.1203,7.1269,7.1265,7.1259,7.1259,7.1297,7.1294,7.1423,7.144,7.1332,7.1333,7.1334,0,7.081,7.0853,7.0895,7.0924,7.0945,7.099,7.1018,7.1028,7.1057,7.1098,7.1128,7.1172,7.1208,7.1279,7.1296,7.1335,7.1331,7.1374,7.1337,7.1335,7.1331,7.1329,7.1332,7.1381,7.1382,7.1383,7.1384,0,7.0908,7.0915,7.0958,7.1003,7.1038,7.1073,7.1107,7.1129,7.1143,7.1175,7.1222,7.125,7.1304,7.1347,7.1387,7.1403,7.1395,7.1395,7.1406,7.1406,7.1401,7.1404,7.1278,7.1392,7.1391,7.1391,7.139,7.139,7.0976,7.1014,7.105,7.1097,7.1124,7.1156,7.1192,7.121,7.125,7.1297,7.1299,7.135,7.138,7.1432,7.1452,7.1489,7.1476,7.1492,7.1496,7.15,7.1503,7.1396,7.1496,7.1496,7.1496,7.1495,7.1495,0,7.1074,7.1097,7.1141,7.119,7.1226,7.1218,7.1255,7.1285,7.133,7.136,7.1396,7.1449,7.1491,7.1511,7.1552,7.1578,7.1575,7.1588,7.1586,7.159,7.1513,7.1499,7.159,7.159,7.159,7.159,7.159,7.159,7.1129,7.1192,7.1203,7.1278,7.13,7.1352,7.1373,7.1401,7.1425,7.1486,7.1521,7.1535,7.1561,7.1603,7.164,7.1645,7.166,7.1675,7.1677,7.1605,7.1595,7.1586,7.1573,7.1678,7.1678,7.1751,7.1752,7.1752]}]]